Chicopee, MA

8:17 PM EDT on October 19, 2017 (GMT -0400)
Westover Air Reserve Base / Metropolitan Airport

Weather History for KCEF - March, 2014

Change the Weather History Date:

Tuesday, March 18, 2014

  Actual Average Record
Temperature  
Mean Temperature 26 °F -  
Max Temperature 41 °F 42 °F 72 °F (2012)
Min Temperature 11 °F 25 °F 6 °F (2017)
Degree Days  
Heating Degree Days 39    
Moisture  
Dew Point 8 °F    
Average Humidity 54    
Maximum Humidity 95    
Minimum Humidity 22    
Precipitation  
Precipitation 0.00 in - - ()
Sea Level Pressure  
Sea Level Pressure 30.29 in    
Wind  
Wind Speed 4 mph (NNE)    
Max Wind Speed 7 mph    
Max Gust Speed -    
Visibility 10 miles    
Events      
Averages and records for this station are not official NWS values.
T = Trace of Precipitation, MM = Missing Value Source: NWS Daily Summary

Daily Weather History Graph

Daily Weather History Graph

Search for Another Location

Airport or City:

Trip Planner

Search our weather history database for the weather conditions in past years. The results will help you decide how hot, cold, wet, or windy it might be!

Date:

Astronomy

Mar. 18, 2014 Rise Set
Actual Time 6:56 AM EDT 7:00 PM EDT
Civil Twilight 6:29 AM EDT 7:27 PM EDT
Nautical Twilight 5:56 AM EDT 8:00 PM EDT
Astronomical Twilight 5:23 AM EDT 8:34 PM EDT
Moon 9:17 PM EDT (3/18) 7:42 AM EDT (3/18)
Length of Visible Light 12h 58m
Length of Day
12h 03m
Waning Gibbous, 96% of the Moon is Illuminated
Mar 18
Waning Gibbous
Mar 23
Last Quarter
Mar 30
New
Apr 7
First Quarter
Apr 15
Full

Hourly Weather History & Observations

Time (EDT) Temp. Windchill Dew Point Humidity Pressure Visibility Wind Dir Wind Speed Gust Speed Precip Events Conditions
12:58 AM 14.5 °F 8.8 °F 11.8 °F 89% 30.17 in 10.0 mi NNE 3.5 mph - N/A   Clear
1:58 AM 13.8 °F 8.0 °F 9.5 °F 83% 30.20 in 10.0 mi NE 3.5 mph - N/A   Clear
2:58 AM 11.1 °F 4.9 °F 9.7 °F 94% 30.20 in 10.0 mi NNE 3.5 mph - N/A   Clear
3:58 AM 11.5 °F - 10.2 °F 95% 30.21 in 10.0 mi Calm Calm - N/A   Clear
4:58 AM 11.3 °F 3.3 °F 9.5 °F 92% 30.24 in 10.0 mi NE 4.6 mph - N/A   Clear
5:58 AM 12.2 °F 4.3 °F 9.7 °F 90% 30.26 in 10.0 mi NE 4.6 mph - N/A   Clear
6:58 AM 12.9 °F 3.8 °F 6.8 °F 77% 30.28 in 10.0 mi NNE 5.8 mph - N/A   Clear
7:58 AM 16.2 °F 7.6 °F 7.2 °F 68% 30.30 in 10.0 mi NNE 5.8 mph - N/A   Clear
8:58 AM 19.6 °F 11.7 °F 4.6 °F 52% 30.33 in 10.0 mi North 5.8 mph - N/A   Clear
9:58 AM 22.6 °F - 3.0 °F 43% 30.35 in 10.0 mi Variable 2.3 mph - N/A   Clear
10:58 AM 26.8 °F 22.8 °F 4.3 °F 38% 30.34 in 10.0 mi NNW 3.5 mph - N/A   Clear
11:58 AM 30.9 °F - 3.2 °F 31% 30.33 in 10.0 mi Variable 2.3 mph - N/A   Clear
12:58 PM 34.0 °F 29.8 °F 3.7 °F 28% 30.33 in 10.0 mi Variable 4.6 mph - N/A   Clear
1:58 PM 36.9 °F - 5.4 °F 27% 30.31 in 10.0 mi Variable 1.2 mph - N/A   Clear
2:58 PM 39.2 °F 34.2 °F 5.7 °F 25% 30.28 in 10.0 mi NW 6.9 mph - N/A   Clear
3:58 PM 40.8 °F 37.8 °F 4.5 °F 22% 30.30 in 10.0 mi NNW 4.6 mph - N/A   Clear
4:58 PM 41.0 °F 37.1 °F 6.8 °F 24% 30.30 in 10.0 mi NW 5.8 mph - N/A   Clear
5:58 PM 40.8 °F 38.8 °F 6.4 °F 24% 30.29 in 10.0 mi West 3.5 mph - N/A   Clear
6:58 PM 38.3 °F 35.9 °F 8.4 °F 29% 30.29 in 10.0 mi WNW 3.5 mph - N/A   Clear
7:58 PM 30.0 °F 26.5 °F 15.3 °F 54% 30.31 in 10.0 mi ENE 3.5 mph - N/A   Clear
8:58 PM 25.5 °F - 14.7 °F 64% 30.32 in 10.0 mi ENE 2.3 mph - N/A   Clear
9:58 PM 30.6 °F 25.8 °F 11.7 °F 45% 30.33 in 10.0 mi East 4.6 mph - N/A   Clear
10:58 PM 31.8 °F 28.5 °F 12.0 °F 44% 30.34 in 10.0 mi ESE 3.5 mph - N/A   Clear
11:58 PM 30.6 °F 27.1 °F 14.0 °F 50% 30.33 in 10.0 mi ESE 3.5 mph - N/A   Clear